Weather History for KCEZ - April, 2012

Change the Weather History Date:

Tuesday, April 10, 2012

  Actual Average Record
Temperature  
Mean Temperature 54 °F 46 °F  
Max Temperature 79 °F 63 °F - ()
Min Temperature 29 °F 28 °F - ()
Degree Days  
Heating Degree Days 11 20  
Month to date heating degree days 182 208  
Since 1 July heating degree days 5447 5738  
Cooling Degree Days 0 0  
Month to date cooling degree days 0 0  
Year to date cooling degree days 0 0  
Growing Degree Days 4 (Base 50)    
Moisture  
Dew Point 19 °F    
Average Humidity 36    
Maximum Humidity 63    
Minimum Humidity 8    
Precipitation  
Precipitation 0.00 in 0.04 in - ()
Month to date precipitation T 0.37  
Year to date precipitation 2.21 3.45  
Sea Level Pressure  
Sea Level Pressure 29.95 in    
Wind  
Wind Speed 6 mph (South)    
Max Wind Speed 20 mph    
Max Gust Speed 25 mph    
Visibility 10 miles    
Events      
T = Trace of Precipitation, MM = Missing Value Source: NWS Daily Summary

Daily Weather History Graph

Daily Weather History Graph

Search for Another Location

Airport or City:

Trip Planner

Search our weather history database for the weather conditions in past years. The results will help you decide how hot, cold, wet, or windy it might be!

Date:

Astronomy

Apr. 10, 2012 Rise Set
Actual Time 6:46 AM MDT 7:45 PM MDT
Civil Twilight 6:19 AM MDT 8:12 PM MDT
Nautical Twilight 5:47 AM MDT 8:44 PM MDT
Astronomical Twilight 5:15 AM MDT 9:17 PM MDT
Moon No Moon Rise 9:39 AM MDT (4/10)
Length of Visible Light 13h 52m
Length of Day
12h 59m
Waning Gibbous, 79% of the Moon is Illuminated
Apr 10
Waning Gibbous
Apr 13
Last Quarter
Apr 21
New
Apr 29
First Quarter
May 5
Full

Hourly Weather History & Observations

Time (MDT) Temp. Windchill Dew Point Humidity Pressure Visibility Wind Dir Wind Speed Gust Speed Precip Events Conditions
12:53 AM 35.1 °F - 12.9 °F 40% 30.00 in 10.0 mi Calm Calm - N/A   Clear
1:53 AM 30.9 °F - 12.0 °F 46% 30.01 in 10.0 mi Calm Calm - N/A   Clear
2:53 AM 33.1 °F 27.7 °F 16.0 °F 50% 29.98 in 10.0 mi ENE 5.8 mph - N/A   Clear
3:53 AM 32.0 °F 26.4 °F 16.0 °F 52% 29.99 in 10.0 mi ENE 5.8 mph - N/A   Clear
4:53 AM 30.9 °F 27.5 °F 16.0 °F 54% 30.00 in 10.0 mi East 3.5 mph - N/A   Clear
5:53 AM 30.0 °F - 17.1 °F 59% 30.02 in 10.0 mi Calm Calm - N/A   Clear
6:53 AM 30.9 °F 27.5 °F 19.0 °F 61% 30.02 in 10.0 mi ENE 3.5 mph - N/A   Clear
7:53 AM 36.0 °F - 19.0 °F 50% 30.05 in 10.0 mi Calm Calm - N/A   Clear
8:53 AM 52.0 °F - 27.0 °F 38% 30.04 in 10.0 mi Calm Calm - N/A   Clear
9:53 AM 61.0 °F - 28.9 °F 30% 30.02 in 10.0 mi Calm Calm - N/A   Clear
10:53 AM 70.0 °F - 27.0 °F 20% 30.01 in 10.0 mi SSE 9.2 mph - N/A   Clear
11:53 AM 71.1 °F - 19.9 °F 14% 30.01 in 10.0 mi SSW 11.5 mph - N/A   Clear
1:53 PM 73.9 °F - 12.9 °F 10% 29.97 in 10.0 mi SW 8.1 mph 21.9 mph N/A   Clear
2:53 PM 75.0 °F - 14.0 °F 10% 29.94 in 10.0 mi SSW 6.9 mph - N/A   Clear
3:53 PM 77.0 °F - 12.9 °F 9% 29.90 in 10.0 mi SW 11.5 mph 21.9 mph N/A   Clear
4:53 PM 73.9 °F - 12.9 °F 10% 29.88 in 10.0 mi SW 9.2 mph 18.4 mph N/A   Clear
5:53 PM 73.9 °F - 14.0 °F 10% 29.88 in 10.0 mi SW 5.8 mph - N/A   Clear
6:53 PM 73.9 °F - 14.0 °F 10% 29.85 in 10.0 mi WNW 3.5 mph - N/A   Clear
7:53 PM 64.0 °F - 21.0 °F 19% 29.87 in 10.0 mi Calm Calm - N/A   Clear
8:53 PM 60.1 °F - 21.0 °F 22% 29.86 in 10.0 mi West 5.8 mph - N/A   Clear
9:53 PM 64.9 °F - 28.9 °F 26% 29.83 in 10.0 mi SSE 16.1 mph - N/A   Clear
11:53 PM 62.1 °F - 33.1 °F 34% 29.84 in 10.0 mi SSW 16.1 mph - N/A   Clear